| time (UTC) | temp C | wind direction | speed KPH | gust KPH | rain 1hr cm | rain 24hr cm | rain mn cm | humidity % | barometer mb |
| 20260504022700 | 11 | 213 | 0.0 | 0.0 | 0.00 | 0.00 | 0.00 | 66 | 1012.6 |
| 20260504022206 | 11 | 213 | 0.0 | 0.0 | 0.00 | 0.00 | 0.00 | 66 | 1012.6 |
| 20260504021709 | 11 | 213 | 0.0 | 0.0 | 0.00 | 0.00 | 0.00 | 66 | 1012.6 |
| 20260504021215 | 11 | 213 | 0.0 | 0.0 | 0.00 | 0.00 | 0.00 | 66 | 1013.4 |
| 20260504020201 | 11 | 360 | 0.0 | 0.0 | 0.00 | 0.00 | 0.00 | 66 | 1013.4 |
| 20260504015702 | 11 | 225 | 0.0 | 0.0 | 0.00 | 0.00 | 0.00 | 66 | 1013.3 |
| 20260504015205 | 11 | 213 | 0.0 | 0.0 | 0.00 | 0.00 | 0.00 | 65 | 1013.3 |
| 20260504014707 | 11 | 213 | 0.0 | 0.0 | 0.00 | 0.00 | 0.00 | 65 | 1013.3 |
| 20260504014206 | 11 | 213 | 0.0 | 0.0 | 0.00 | 0.00 | 0.00 | 65 | 1013.3 |
| 20260504013709 | 11 | 213 | 0.0 | 0.0 | 0.00 | 0.00 | 0.00 | 65 | 1013.3 |
| 20260504013213 | 11 | 244 | 0.0 | 0.0 | 0.00 | 0.00 | 0.00 | 65 | 1013.3 |
| 20260504012655 | 11 | 244 | 0.0 | 0.0 | 0.00 | 0.00 | 0.00 | 64 | 1013.3 |
| 20260504012158 | 11 | 360 | 0.0 | 0.0 | 0.00 | 0.00 | 0.00 | 64 | 1013.3 |
| 20260504011710 | 11 | 255 | 0.0 | 0.0 | 0.00 | 0.00 | 0.00 | 64 | 1013.3 |
| 20260504011156 | 11 | 244 | 0.0 | 0.0 | 0.00 | 0.00 | 0.00 | 64 | 1013.1 |
| 20260504010704 | 11 | 244 | 0.0 | 0.0 | 0.00 | 0.00 | 0.00 | 64 | 1013.1 |
| 20260504010211 | 11 | 244 | 0.0 | 0.0 | 0.00 | 0.00 | 0.00 | 64 | 1013.1 |
| 20260504005657 | 11 | 360 | 0.0 | 0.0 | 0.00 | 0.00 | 0.00 | 63 | 1013.2 |
| 20260504005156 | 11 | 244 | 0.0 | 0.0 | 0.00 | 0.00 | 0.00 | 62 | 1013.2 |
| 20260504004658 | 11 | 244 | 0.0 | 0.0 | 0.00 | 0.00 | 0.00 | 62 | 1013.2 |
| 20260504004203 | 11 | 244 | 0.0 | 0.0 | 0.00 | 0.00 | 0.00 | 61 | 1013.3 |
| 20260504003703 | 12 | 244 | 0.0 | 0.0 | 0.00 | 0.00 | 0.00 | 61 | 1013.3 |
| 20260504003207 | 12 | 244 | 0.0 | 0.0 | 0.00 | 0.00 | 0.00 | 61 | 1013.3 |
| 20260504002701 | 12 | 244 | 0.0 | 0.0 | 0.00 | 0.00 | 0.00 | 61 | 1013.6 |
| 20260504002209 | 12 | 244 | 0.0 | 0.0 | 0.00 | 0.00 | 0.00 | 61 | 1013.6 |
| 20260504001712 | 12 | 244 | 0.0 | 0.0 | 0.00 | 0.00 | 0.00 | 61 | 1013.6 |
| 20260504001158 | 12 | 244 | 0.0 | 0.0 | 0.00 | 0.00 | 0.00 | 61 | 1013.6 |
| 20260504000707 | 12 | 244 | 0.0 | 0.0 | 0.00 | 0.00 | 0.00 | 61 | 1013.6 |
| 20260504000209 | 12 | 244 | 0.0 | 0.0 | 0.00 | 0.00 | 0.00 | 61 | 1013.6 |
| 20260503235710 | 12 | 244 | 0.0 | 0.0 | 0.00 | 0.00 | 0.00 | 61 | 1013.6 |
| 20260503235215 | 12 | 244 | 0.0 | 0.0 | 0.00 | 0.00 | 0.00 | 60 | 1013.6 |
| 20260503234700 | 12 | 244 | 0.0 | 0.0 | 0.00 | 0.00 | 0.00 | 60 | 1013.6 |
| 20260503234205 | 12 | 244 | 0.0 | 0.0 | 0.00 | 0.00 | 0.00 | 60 | 1013.4 |
| 20260503233710 | 12 | 244 | 0.0 | 0.0 | 0.00 | 0.00 | 0.00 | 60 | 1013.4 |
| 20260503233206 | 13 | 244 | 0.0 | 0.0 | 0.00 | 0.00 | 0.00 | 60 | 1013.4 |
| 20260503232701 | 13 | 244 | 0.0 | 0.0 | 0.00 | 0.00 | 0.00 | 61 | 1013.0 |
| 20260503232200 | 13 | 273 | 0.0 | 0.0 | 0.00 | 0.00 | 0.00 | 61 | 1013.0 |
| 20260503231654 | 13 | 273 | 0.0 | 0.0 | 0.00 | 0.00 | 0.00 | 61 | 1013.0 |
| 20260503231207 | 13 | 266 | 0.0 | 0.0 | 0.00 | 0.00 | 0.00 | 61 | 1013.1 |
| 20260503230659 | 13 | 274 | 0.0 | 0.0 | 0.00 | 0.00 | 0.00 | 61 | 1013.1 |
| 20260503230209 | 13 | 274 | 0.0 | 0.0 | 0.00 | 0.00 | 0.00 | 62 | 1013.1 |
| 20260503225657 | 13 | 274 | 0.0 | 0.0 | 0.00 | 0.00 | 0.00 | 61 | 1013.0 |
| 20260503225201 | 13 | 273 | 1.6 | 0.0 | 0.00 | 0.00 | 0.00 | 61 | 1013.0 |
| 20260503224710 | 13 | 265 | 0.0 | 0.0 | 0.00 | 0.00 | 0.00 | 61 | 1013.0 |
| 20260503224158 | 13 | 264 | 0.0 | 0.0 | 0.00 | 0.00 | 0.00 | 60 | 1013.0 |
| 20260503223704 | 13 | 265 | 0.0 | 0.0 | 0.00 | 0.00 | 0.00 | 60 | 1013.0 |
| 20260503223209 | 13 | 264 | 0.0 | 0.0 | 0.00 | 0.00 | 0.00 | 60 | 1013.0 |
| 20260503222658 | 13 | 263 | 0.0 | 0.0 | 0.00 | 0.00 | 0.00 | 59 | 1012.7 |
| 20260503222212 | 14 | 269 | 0.0 | 0.0 | 0.00 | 0.00 | 0.00 | 59 | 1012.7 |
| 20260503221659 | 14 | 269 | 1.6 | 0.0 | 0.00 | 0.00 | 0.00 | 59 | 1012.7 |
| 20260503221158 | 14 | 270 | 3.2 | 0.0 | 0.00 | 0.00 | 0.00 | 59 | 1012.6 |
| 20260503220706 | 14 | 279 | 3.2 | 0.0 | 0.00 | 0.00 | 0.00 | 59 | 1012.6 |
| 20260503220213 | 14 | 280 | 1.6 | 0.0 | 0.00 | 0.00 | 0.00 | 59 | 1012.6 |
| 20260503215716 | 15 | 273 | 0.0 | 0.0 | 0.00 | 0.00 | 0.00 | 59 | 1012.4 |
| 20260503215205 | 15 | 290 | 0.0 | 0.0 | 0.00 | 0.00 | 0.00 | 58 | 1012.4 |
| 20260503214711 | 15 | 296 | 1.6 | 0.0 | 0.00 | 0.00 | 0.00 | 58 | 1012.4 |
| 20260503214157 | 15 | 289 | 3.2 | 0.0 | 0.00 | 0.00 | 0.00 | 58 | 1012.3 |
| 20260503213655 | 15 | 283 | 4.8 | 0.0 | 0.00 | 0.00 | 0.00 | 58 | 1012.3 |
| 20260503213205 | 15 | 277 | 6.4 | 0.0 | 0.00 | 0.00 | 0.00 | 57 | 1012.3 |
| 20260503212709 | 15 | 271 | 8.0 | 0.0 | 0.00 | 0.00 | 0.00 | 57 | 1012.1 |
| 20260503212216 | 15 | 274 | 9.7 | 0.0 | 0.00 | 0.00 | 0.00 | 56 | 1012.1 |
| 20260503211701 | 15 | 269 | 9.7 | 0.0 | 0.00 | 0.00 | 0.00 | 55 | 1012.1 |
| 20260503211201 | 15 | 267 | 8.0 | 0.0 | 0.00 | 0.00 | 0.00 | 55 | 1012.0 |
| 20260503210700 | 16 | 276 | 6.4 | 0.0 | 0.00 | 0.00 | 0.00 | 54 | 1012.0 |
| 20260503210203 | 16 | 273 | 3.2 | 0.0 | 0.00 | 0.00 | 0.00 | 53 | 1012.0 |
| 20260503205701 | 16 | 273 | 1.6 | 0.0 | 0.00 | 0.00 | 0.00 | 52 | 1011.9 |
| 20260503205203 | 16 | 360 | 0.0 | 0.0 | 0.00 | 0.00 | 0.00 | 52 | 1011.9 |
| 20260503204708 | 16 | 215 | 0.0 | 0.0 | 0.00 | 0.00 | 0.00 | 52 | 1011.9 |
| 20260503204158 | 16 | 217 | 0.0 | 0.0 | 0.00 | 0.00 | 0.00 | 51 | 1011.4 |
| 20260503203657 | 16 | 296 | 0.0 | 0.0 | 0.00 | 0.00 | 0.00 | 51 | 1011.4 |
| 20260503203216 | 17 | 209 | 0.0 | 0.0 | 0.00 | 0.00 | 0.00 | 51 | 1011.4 |
| 20260503202701 | 17 | 198 | 0.0 | 0.0 | 0.00 | 0.00 | 0.00 | 50 | 1011.4 |
| 20260503202207 | 17 | 200 | 0.0 | 0.0 | 0.00 | 0.00 | 0.00 | 50 | 1011.4 |
| 20260503201709 | 17 | 215 | 0.0 | 0.0 | 0.00 | 0.00 | 0.00 | 50 | 1011.4 |
| 20260503201212 | 17 | 250 | 0.0 | 0.0 | 0.00 | 0.00 | 0.00 | 49 | 1011.5 |
| 20260503200658 | 17 | 284 | 0.0 | 0.0 | 0.00 | 0.00 | 0.00 | 48 | 1011.5 |
| 20260503200158 | 17 | 254 | 0.0 | 0.0 | 0.00 | 0.00 | 0.00 | 47 | 1011.5 |
| 20260503195706 | 17 | 274 | 1.6 | 0.0 | 0.00 | 0.00 | 0.00 | 47 | 1011.2 |
| 20260503195209 | 17 | 254 | 4.8 | 0.0 | 0.00 | 0.00 | 0.00 | 47 | 1011.2 |
| 20260503194712 | 17 | 272 | 3.2 | 0.0 | 0.00 | 0.00 | 0.00 | 46 | 1011.2 |
| 20260503194210 | 17 | 236 | 0.0 | 0.0 | 0.00 | 0.00 | 0.00 | 46 | 1011.0 |
| 20260503193756 | 17 | 215 | 0.0 | 0.0 | 0.00 | 0.00 | 0.00 | 46 | 1011.0 |
| 20260503193215 | 18 | 211 | 0.0 | 0.0 | 0.00 | 0.00 | 0.00 | 46 | 1011.0 |
| 20260503192658 | 18 | 360 | 0.0 | 0.0 | 0.00 | 0.00 | 0.00 | 46 | 1010.4 |
| 20260503192200 | 18 | 303 | 0.0 | 0.0 | 0.00 | 0.00 | 0.00 | 45 | 1010.4 |
| 20260503191705 | 18 | 304 | 0.0 | 0.0 | 0.00 | 0.00 | 0.00 | 45 | 1010.4 |
| 20260503191208 | 18 | 303 | 0.0 | 0.0 | 0.00 | 0.00 | 0.00 | 44 | 1010.5 |
| 20260503190710 | 18 | 303 | 0.0 | 0.0 | 0.00 | 0.00 | 0.00 | 44 | 1010.5 |
| 20260503190202 | 19 | 360 | 0.0 | 0.0 | 0.00 | 0.00 | 0.00 | 44 | 1010.5 |
| 20260503185707 | 19 | 303 | 0.0 | 0.0 | 0.00 | 0.00 | 0.00 | 44 | 1010.4 |
| 20260503185205 | 20 | 303 | 0.0 | 0.0 | 0.00 | 0.00 | 0.00 | 44 | 1010.4 |
| 20260503184705 | 20 | 360 | 0.0 | 0.0 | 0.00 | 0.00 | 0.00 | 45 | 1010.4 |
| 20260503184213 | 20 | 274 | 0.0 | 0.0 | 0.00 | 0.00 | 0.00 | 44 | 1010.2 |
| 20260503183715 | 20 | 274 | 0.0 | 0.0 | 0.00 | 0.00 | 0.00 | 43 | 1010.2 |
| 20260503183200 | 20 | 285 | 0.0 | 0.0 | 0.00 | 0.00 | 0.00 | 42 | 1010.2 |
| 20260503182710 | 20 | 273 | 0.0 | 0.0 | 0.00 | 0.00 | 0.00 | 42 | 1010.2 |
| 20260503182200 | 20 | 360 | 0.0 | 0.0 | 0.00 | 0.00 | 0.00 | 41 | 1010.2 |
| 20260503181713 | 21 | 274 | 0.0 | 0.0 | 0.00 | 0.00 | 0.00 | 42 | 1010.2 |
| 20260503181205 | 21 | 274 | 0.0 | 0.0 | 0.00 | 0.00 | 0.00 | 41 | 1010.5 |
| 20260503180704 | 21 | 273 | 0.0 | 0.0 | 0.00 | 0.00 | 0.00 | 41 | 1010.5 |
| 20260503180208 | 21 | 274 | 0.0 | 0.0 | 0.00 | 0.00 | 0.00 | 40 | 1010.5 |
| 20260503175708 | 21 | 360 | 0.0 | 0.0 | 0.00 | 0.00 | 0.00 | 38 | 1010.5 |
| 20260503175203 | 21 | 274 | 0.0 | 0.0 | 0.00 | 0.00 | 0.00 | 38 | 1010.5 |
| 20260503174658 | 21 | 274 | 0.0 | 0.0 | 0.00 | 0.00 | 0.00 | 38 | 1010.5 |
| 20260503174212 | 21 | 274 | 0.0 | 0.0 | 0.00 | 0.00 | 0.00 | 37 | 1010.5 |
| 20260503173708 | 21 | 274 | 0.0 | 0.0 | 0.00 | 0.00 | 0.00 | 39 | 1010.5 |
| 20260503173216 | 21 | 274 | 0.0 | 0.0 | 0.00 | 0.00 | 0.00 | 37 | 1010.5 |
| 20260503172706 | 21 | 273 | 0.0 | 0.0 | 0.00 | 0.00 | 0.00 | 36 | 1010.5 |
| 20260503172210 | 22 | 274 | 0.0 | 0.0 | 0.00 | 0.00 | 0.00 | 36 | 1010.5 |
| 20260503171701 | 22 | 276 | 0.0 | 0.0 | 0.00 | 0.00 | 0.00 | 36 | 1010.5 |
| 20260503171203 | 22 | 273 | 0.0 | 0.0 | 0.00 | 0.00 | 0.00 | 36 | 1010.1 |
| 20260503170713 | 22 | 274 | 0.0 | 0.0 | 0.00 | 0.00 | 0.00 | 36 | 1010.1 |
| 20260503170201 | 22 | 273 | 1.6 | 0.0 | 0.00 | 0.00 | 0.00 | 35 | 1010.1 |
| 20260503160206 | 23 | 317 | 3.2 | 0.0 | 0.00 | 0.00 | 0.00 | 32 | 1010.1 |
| 20260503150657 | 22 | 304 | 3.2 | 0.0 | 0.00 | 0.00 | 0.00 | 37 | 1010.1 |
| 20260503150205 | 22 | 360 | 1.6 | 0.0 | 0.00 | 0.00 | 0.00 | 36 | 1010.1 |
| 20260503140201 | 23 | 341 | 1.6 | 0.0 | 0.00 | 0.00 | 0.00 | 33 | 1010.3 |
| 20260503131214 | 24 | 288 | 1.6 | 0.0 | 0.00 | 0.00 | 0.00 | 32 | 1011.5 |
| 20260503130657 | 24 | 290 | 1.6 | 0.0 | 0.00 | 0.00 | 0.00 | 33 | 1011.5 |
| 20260503130203 | 25 | 275 | 3.2 | 0.0 | 0.00 | 0.00 | 0.00 | 34 | 1011.5 |
| 20260503120203 | 23 | 273 | 4.8 | 0.0 | 0.00 | 0.00 | 0.00 | 36 | 1011.9 |
| 20260503110659 | 23 | 294 | 3.2 | 0.0 | 0.00 | 0.00 | 0.00 | 39 | 1011.5 |
| 20260503110214 | 23 | 298 | 3.2 | 0.0 | 0.00 | 0.00 | 0.00 | 36 | 1011.5 |
| 20260503100204 | 22 | 304 | 3.2 | 0.0 | 0.00 | 0.00 | 0.00 | 42 | 1012.8 |
| 20260503090207 | 20 | 293 | 3.2 | 0.0 | 0.00 | 0.00 | 0.00 | 49 | 1013.5 |
| 20260503081206 | 18 | 277 | 4.8 | 0.0 | 0.00 | 0.00 | 0.00 | 48 | 1013.8 |
| 20260503080705 | 18 | 271 | 4.8 | 0.0 | 0.00 | 0.00 | 0.00 | 49 | 1013.8 |
| 20260503080206 | 18 | 277 | 6.4 | 0.0 | 0.00 | 0.00 | 0.00 | 48 | 1013.8 |
| 20260503072713 | 17 | 360 | 0.0 | 0.0 | 0.00 | 0.00 | 0.00 | 53 | 1013.2 |
| 20260503072215 | 17 | 280 | 1.6 | 0.0 | 0.00 | 0.00 | 0.00 | 52 | 1013.2 |
| 20260503071718 | 17 | 281 | 1.6 | 0.0 | 0.00 | 0.00 | 0.00 | 53 | 1013.2 |
| 20260503071201 | 17 | 288 | 3.2 | 0.0 | 0.00 | 0.00 | 0.00 | 54 | 1013.7 |
| 20260503070707 | 17 | 275 | 1.6 | 0.0 | 0.00 | 0.00 | 0.00 | 54 | 1013.7 |
| 20260503070210 | 17 | 159 | 0.0 | 0.0 | 0.00 | 0.00 | 0.00 | 55 | 1013.7 |
| 20260503060205 | 13 | 169 | 0.0 | 0.0 | 0.00 | 0.00 | 0.00 | 66 | 1013.6 |
| 20260503054710 | 12 | 173 | 0.0 | 0.0 | 0.00 | 0.00 | 0.00 | 69 | 1013.6 |
| 20260503054204 | 12 | 172 | 0.0 | 0.0 | 0.00 | 0.00 | 0.00 | 69 | 1012.9 |
| 20260503053710 | 12 | 172 | 0.0 | 0.0 | 0.00 | 0.00 | 0.00 | 71 | 1012.9 |
| 20260503053214 | 11 | 173 | 0.0 | 0.0 | 0.00 | 0.00 | 0.00 | 73 | 1012.9 |
| 20260503052702 | 11 | 172 | 0.0 | 0.0 | 0.00 | 0.00 | 0.00 | 74 | 1013.2 |
| 20260503052213 | 11 | 360 | 1.6 | 0.0 | 0.00 | 0.00 | 0.00 | 73 | 1013.2 |
| 20260503051700 | 10 | 171 | 1.6 | 0.0 | 0.00 | 0.00 | 0.00 | 76 | 1013.2 |
| 20260503051208 | 10 | 164 | 0.0 | 0.0 | 0.00 | 0.00 | 0.00 | 74 | 1013.1 |
| 20260503050714 | 10 | 146 | 0.0 | 0.0 | 0.00 | 0.00 | 0.00 | 74 | 1013.1 |
| 20260503050210 | 9 | 178 | 0.0 | 0.0 | 0.00 | 0.00 | 0.00 | 75 | 1013.1 |
| 20260503045709 | 8 | 178 | 0.0 | 0.0 | 0.00 | 0.00 | 0.00 | 76 | 1013.2 |
| 20260503045216 | 8 | 178 | 0.0 | 0.0 | 0.00 | 0.00 | 0.00 | 78 | 1013.2 |
| 20260503044719 | 8 | 178 | 0.0 | 0.0 | 0.00 | 0.00 | 0.00 | 78 | 1013.2 |
| 20260503044204 | 8 | 175 | 0.0 | 0.0 | 0.00 | 0.00 | 0.00 | 77 | 1013.4 |
| 20260503043709 | 8 | 175 | 0.0 | 0.0 | 0.00 | 0.00 | 0.00 | 77 | 1013.4 |
| 20260503043158 | 8 | 360 | 0.0 | 0.0 | 0.00 | 0.00 | 0.00 | 77 | 1013.4 |
| 20260503042705 | 7 | 175 | 0.0 | 0.0 | 0.00 | 0.00 | 0.00 | 77 | 1013.5 |
| 20260503042206 | 7 | 175 | 0.0 | 0.0 | 0.00 | 0.00 | 0.00 | 77 | 1013.5 |
| 20260503041711 | 7 | 360 | 0.0 | 0.0 | 0.00 | 0.00 | 0.00 | 77 | 1013.5 |
| 20260503041214 | 7 | 172 | 0.0 | 0.0 | 0.00 | 0.00 | 0.00 | 76 | 1013.3 |
| 20260503040700 | 7 | 167 | 0.0 | 0.0 | 0.00 | 0.00 | 0.00 | 76 | 1013.3 |
| 20260503040209 | 7 | 161 | 0.0 | 0.0 | 0.00 | 0.00 | 0.00 | 76 | 1013.3 |
| 20260503035712 | 7 | 168 | 0.0 | 0.0 | 0.00 | 0.00 | 0.00 | 75 | 1013.3 |
| 20260503035213 | 7 | 164 | 0.0 | 0.0 | 0.00 | 0.00 | 0.00 | 75 | 1013.3 |
| 20260503034709 | 7 | 189 | 0.0 | 0.0 | 0.00 | 0.00 | 0.00 | 75 | 1013.3 |
| 20260503034215 | 7 | 189 | 0.0 | 0.0 | 0.00 | 0.00 | 0.00 | 75 | 1013.2 |
| 20260503033718 | 7 | 189 | 0.0 | 0.0 | 0.00 | 0.00 | 0.00 | 75 | 1013.2 |
| 20260503033200 | 8 | 169 | 0.0 | 0.0 | 0.00 | 0.00 | 0.00 | 75 | 1013.2 |
| 20260503032706 | 8 | 176 | 0.0 | 0.0 | 0.00 | 0.00 | 0.00 | 74 | 1013.3 |
| 20260503032206 | 8 | 172 | 0.0 | 0.0 | 0.00 | 0.00 | 0.00 | 74 | 1013.3 |
| 20260503031709 | 8 | 170 | 0.0 | 0.0 | 0.00 | 0.00 | 0.00 | 74 | 1013.3 |
| 20260503031210 | 8 | 180 | 0.0 | 0.0 | 0.00 | 0.00 | 0.00 | 74 | 1013.2 |
| 20260503030715 | 8 | 171 | 0.0 | 0.0 | 0.00 | 0.00 | 0.00 | 74 | 1013.2 |
| 20260503030215 | 8 | 170 | 0.0 | 0.0 | 0.00 | 0.00 | 0.00 | 74 | 1013.2 |
| 20260503025700 | 8 | 170 | 0.0 | 0.0 | 0.00 | 0.00 | 0.00 | 74 | 1013.2 |
| 20260503025205 | 8 | 169 | 0.0 | 0.0 | 0.00 | 0.00 | 0.00 | 74 | 1013.2 |
| 20260503024708 | 8 | 170 | 0.0 | 0.0 | 0.00 | 0.00 | 0.00 | 74 | 1013.2 |
| 20260503024210 | 8 | 170 | 0.0 | 0.0 | 0.00 | 0.00 | 0.00 | 74 | 1013.2 |
| 20260503023712 | 8 | 180 | 0.0 | 0.0 | 0.00 | 0.00 | 0.00 | 74 | 1013.2 |
| 20260503023215 | 8 | 171 | 0.0 | 0.0 | 0.00 | 0.00 | 0.00 | 74 | 1013.2 |